Location: Gallinara
(44.0333°N, 8.2333°E)
Time: 16:55:31
(UTC+00:00)

Cosmos 1605 Rocket - Pass Details

Date: 25 September 2020
Orbit: 945 x 1005 km, 82.9° (Epoch: 29 October)

Event Time Altitude Azimuth Distance (km) Brightness Sun altitude
Rises 02:25:46 0° 352° (N) 3,739 7.4 -30.3°
Reaches altitude 10° 02:28:19 10° 354° (N) 2,788 6.6 -29.9°
Maximum altitude 02:34:45 80° 81° (E) 1,025 4.0 -28.9°
Enters shadow 02:37:17 40° 163° (SSE) 1,446 4.7 -28.5°
